TimeEDT,TemperatureF,Dew PointF,Humidity,Sea Level PressureIn,VisibilityMPH,Wind Direction,Wind SpeedMPH,Gust SpeedMPH,PrecipitationIn,Events,Conditions,WindDirDegrees,DateUTC
12:53 AM,82.9,75.9,79,29.94,10.0,East,4.6,-,N/A,,Mostly Cloudy,100,2013-09-18 04:53:00
1:17 AM,82.4,73.4,74,29.95,10.0,ESE,5.8,-,N/A,,Scattered Clouds,110,2013-09-18 05:17:00
1:53 AM,82.9,75.0,77,29.94,10.0,ESE,5.8,-,N/A,,Clear,110,2013-09-18 05:53:00
2:53 AM,82.9,75.9,79,29.92,10.0,Calm,Calm,-,N/A,,Clear,0,2013-09-18 06:53:00
3:53 AM,82.0,75.0,79,29.91,10.0,Calm,Calm,-,N/A,,Clear,0,2013-09-18 07:53:00
4:53 AM,80.1,75.0,85,29.91,10.0,Calm,Calm,-,N/A,,Clear,0,2013-09-18 08:53:00
5:53 AM,80.1,77.0,90,29.91,10.0,Calm,Calm,-,0.00,Rain,Light Rain,0,2013-09-18 09:53:00
6:53 AM,80.1,77.0,90,29.92,10.0,Calm,Calm,-,0.01,,Clear,0,2013-09-18 10:53:00
7:42 AM,80.6,78.8,94,29.93,10.0,NNE,4.6,-,N/A,,Partly Cloudy,30,2013-09-18 11:42:00
7:53 AM,81.0,78.1,91,29.94,10.0,NNE,6.9,-,N/A,,Partly Cloudy,20,2013-09-18 11:53:00
8:53 AM,82.0,78.1,88,29.96,10.0,NE,9.2,-,N/A,,Clear,40,2013-09-18 12:53:00
9:53 AM,82.9,77.0,82,29.98,10.0,NE,8.1,-,N/A,,Scattered Clouds,40,2013-09-18 13:53:00
10:53 AM,84.0,77.0,79,29.98,10.0,NE,10.4,-,N/A,,Clear,50,2013-09-18 14:53:00
11:53 AM,84.0,77.0,79,29.98,10.0,NE,9.2,-,N/A,,Partly Cloudy,50,2013-09-18 15:53:00
12:14 PM,82.4,75.2,79,29.99,10.0,ESE,4.6,-,N/A,,Mostly Cloudy,120,2013-09-18 16:14:00
12:42 PM,82.4,73.4,74,30.00,7.0,Variable,3.5,-,N/A,,Mostly Cloudy,0,2013-09-18 16:42:00
12:53 PM,82.0,73.9,76,29.99,7.0,Variable,3.5,-,N/A,,Partly Cloudy,0,2013-09-18 16:53:00
1:53 PM,84.9,75.0,72,29.97,7.0,Variable,3.5,-,N/A,,Clear,0,2013-09-18 17:53:00
2:44 PM,84.2,75.2,74,29.96,10.0,NE,5.8,-,N/A,,Mostly Cloudy,40,2013-09-18 18:44:00
2:53 PM,84.0,75.9,76,29.96,10.0,NE,6.9,-,N/A,,Mostly Cloudy,50,2013-09-18 18:53:00
3:31 PM,84.2,77.0,79,29.95,9.0,SSE,3.5,-,N/A,,Mostly Cloudy,150,2013-09-18 19:31:00
3:53 PM,84.0,77.0,79,29.96,10.0,Calm,Calm,-,N/A,,Clear,0,2013-09-18 19:53:00
4:53 PM,84.0,75.9,76,29.96,10.0,Calm,Calm,-,N/A,,Overcast,0,2013-09-18 20:53:00
5:53 PM,82.9,75.9,79,29.95,10.0,East,3.5,-,N/A,,Mostly Cloudy,80,2013-09-18 21:53:00
6:53 PM,82.9,75.0,77,29.96,10.0,East,3.5,-,N/A,,Partly Cloudy,80,2013-09-18 22:53:00
7:53 PM,82.9,73.9,74,29.96,10.0,ENE,3.5,-,N/A,,Clear,60,2013-09-18 23:53:00
8:53 PM,82.0,73.9,76,29.98,10.0,NNE,5.8,-,N/A,,Clear,20,2013-09-19 00:53:00
9:53 PM,81.0,75.9,85,30.01,10.0,North,6.9,16.1,N/A,,Mostly Cloudy,360,2013-09-19 01:53:00
10:09 PM,80.6,75.2,84,30.00,10.0,North,8.1,17.3,N/A,,Mostly Cloudy,10,2013-09-19 02:09:00
10:18 PM,80.6,75.2,84,30.00,10.0,NNE,10.4,-,N/A,,Mostly Cloudy,30,2013-09-19 02:18:00
10:26 PM,80.6,75.2,84,30.00,10.0,NNE,9.2,-,N/A,,Scattered Clouds,20,2013-09-19 02:26:00
10:38 PM,80.6,75.2,84,30.00,10.0,NNE,10.4,-,N/A,,Scattered Clouds,30,2013-09-19 02:38:00
10:53 PM,80.1,75.0,85,29.99,10.0,NE,11.5,-,N/A,,Partly Cloudy,40,2013-09-19 02:53:00
11:53 PM,80.1,73.9,81,29.99,10.0,NE,10.4,-,N/A,,Clear,50,2013-09-19 03:53:00